sat.trackr.live / text

‹ back to catalog

STARLINK-4454

NORAD 53499 · 2022-099AL

PAYLOAD ACTIVE UNKNOWN

§ Identity

Operator
Country
US
Launch date
2022-08-12
Launch site
AFWTR
Launch vehicle
Mass (kg)
RCS (m²)

Purposes: comms

External: N2YO · Heavens-Above · Gunter

§ Orbital elements

Epoch: 2026-05-25T04:00:03.998880Z

Period
93.95 min
Inclination
97.6015°
Eccentricity
0.0001780
Mean motion
15.32764496 rev/d
Perigee alt
466.4 km
Apogee alt
468.8 km
Semi-major
6,845.7 km
B*
-1.9894e-2
RAAN
267.8209°
Arg perigee
70.3113°
Mean anomaly
88.4342°
Rev number
570

§ Raw data

STARLINK-44541 53499U 22099AL  26145.16671295 -.00582673  00000+0 -19894-1 0  99912 53499  97.6015 267.8209 0001780  70.3113  88.4342 15.32764496  5703

JSON: /api/v1/satellites/53499 · /tle

For live sub-satellite position, see the globe view (requires WebGL).

§ Visibility from observer

Set your observer location to see the next 7 days of passes ≥ 10°. The values pass through the URL so the page stays shareable.

No JS? Fill the form by hand. The geolocation button needs JavaScript.